Previsão horária em Kumasi

Hoje, 24 Novembro, Terça-feira

Tempo Temperatura Precipitação Vento Pressão Humidade
00:00 +28°C° 0 mm 2 m/s 756 mmHg 81%
01:00 +27°C° 0 mm 2 m/s 755 mmHg 83%
02:00 +27°C° 0 mm 2 m/s 755 mmHg 84%
03:00 +27°C° 0 mm 1 m/s 755 mmHg 86%
04:00 +27°C° 0 mm 1 m/s 755 mmHg 87%
05:00 +26°C° 0 mm 1 m/s 755 mmHg 88%
06:00 +26°C° 0 mm 1 m/s 756 mmHg 85%
07:00 +28°C° 0 mm 1 m/s 756 mmHg 77%
08:00 +30°C° 0 mm 2 m/s 757 mmHg 69%
09:00 +32°C° 0 mm 2 m/s 757 mmHg 61%
10:00 +35°C° 0 mm 2 m/s 756 mmHg 55%
11:00 +35°C° 0 mm 1 m/s 756 mmHg 49%
12:00 +37°C° 0 mm 2 m/s 755 mmHg 46%
13:00 +37°C° 0 mm 2 m/s 754 mmHg 48%
14:00 +36°C° 0 mm 3 m/s 754 mmHg 49%
15:00 +35°C° 0 mm 4 m/s 753 mmHg 51%
16:00 +34°C° 0 mm 4 m/s 754 mmHg 57%
17:00 +33°C° 0 mm 4 m/s 754 mmHg 64%
18:00 +30°C° 0 mm 4 m/s 754 mmHg 70%
19:00 +30°C° 0 mm 3 m/s 755 mmHg 73%
20:00 +29°C° 0 mm 3 m/s 755 mmHg 76%
21:00 +29°C° 0 mm 3 m/s 756 mmHg 78%
22:00 +29°C° 0 mm 2 m/s 756 mmHg 80%
23:00 +28°C° 0 mm 2 m/s 755 mmHg 82%

Amanhã, 25 Novembro, Quarta-feira

Tempo Temperatura Precipitação Vento Pressão Humidade
00:00 +28°C° 0 mm 2 m/s 755 mmHg 83%
01:00 +28°C° 0 mm 2 m/s 755 mmHg 85%
02:00 +28°C° 0 mm 2 m/s 754 mmHg 86%
03:00 +27°C° 0 mm 2 m/s 754 mmHg 87%
04:00 +27°C° 0 mm 2 m/s 754 mmHg 88%
05:00 +27°C° 0 mm 2 m/s 755 mmHg 89%
06:00 +27°C° 0 mm 1 m/s 755 mmHg 90%
07:00 +28°C° 0 mm 2 m/s 755 mmHg 82%
08:00 +30°C° 0 mm 2 m/s 756 mmHg 75%
09:00 +32°C° 0 mm 2 m/s 756 mmHg 67%
10:00 +34°C° 0 mm 2 m/s 756 mmHg 62%
11:00 +35°C° 0 mm 3 m/s 755 mmHg 57%
12:00 +36°C° 0 mm 3 m/s 754 mmHg 52%
13:00 +35°C° 0.3 mm 3 m/s 754 mmHg 54%
14:00 +35°C° 0.3 mm 4 m/s 753 mmHg 56%
15:00 +35°C° 0.3 mm 4 m/s 752 mmHg 58%
16:00 +33°C° 0 mm 4 m/s 753 mmHg 64%
17:00 +32°C° 0 mm 4 m/s 753 mmHg 69%
18:00 +30°C° 0 mm 4 m/s 753 mmHg 75%
19:00 +29°C° 0 mm 4 m/s 754 mmHg 77%
20:00 +29°C° 0 mm 4 m/s 754 mmHg 79%
21:00 +29°C° 0 mm 3 m/s 755 mmHg 81%
22:00 +28°C° 0 mm 3 m/s 755 mmHg 82%
23:00 +28°C° 0 mm 3 m/s 754 mmHg 84%

Depois de amanhã, 26 Novembro, Quinta-feira

Tempo Temperatura Precipitação Vento Pressão Humidade
00:00 +28°C° 0 mm 3 m/s 754 mmHg 86%
01:00 +28°C° 0 mm 3 m/s 754 mmHg 86%
02:00 +28°C° 0 mm 3 m/s 754 mmHg 87%
03:00 +28°C° 0 mm 3 m/s 754 mmHg 87%
04:00 +27°C° 0 mm 3 m/s 754 mmHg 88%
05:00 +27°C° 0 mm 2 m/s 754 mmHg 88%
06:00 +27°C° 0 mm 2 m/s 755 mmHg 89%
07:00 +28°C° 0 mm 2 m/s 755 mmHg 83%
08:00 +30°C° 0 mm 3 m/s 755 mmHg 77%
09:00 +31°C° 0 mm 3 m/s 756 mmHg 71%
10:00 +33°C° 0 mm 3 m/s 755 mmHg 65%
11:00 +34°C° 0 mm 3 m/s 754 mmHg 58%
12:00 +36°C° 0 mm 3 m/s 754 mmHg 52%
13:00 +36°C° 0.2 mm 3 m/s 753 mmHg 52%
14:00 +35°C° 0.2 mm 4 m/s 753 mmHg 53%
15:00 +35°C° 0.2 mm 4 m/s 752 mmHg 53%
16:00 +34°C° 0.1 mm 4 m/s 752 mmHg 60%
17:00 +32°C° 0.1 mm 4 m/s 753 mmHg 66%
18:00 +30°C° 0.1 mm 5 m/s 753 mmHg 73%
19:00 +30°C° 0 mm 4 m/s 754 mmHg 75%
20:00 +29°C° 0 mm 4 m/s 754 mmHg 77%
21:00 +29°C° 0 mm 4 m/s 755 mmHg 79%
22:00 +29°C° 0 mm 3 m/s 755 mmHg 81%
23:00 +28°C° 0 mm 3 m/s 755 mmHg 83%

27 Novembro, Sexta-feira

Tempo Temperatura Precipitação Vento Pressão Humidade
00:00 +28°C° 0 mm 3 m/s 754 mmHg 85%
01:00 +28°C° 0 mm 3 m/s 754 mmHg 85%
02:00 +28°C° 0 mm 3 m/s 754 mmHg 86%
03:00 +28°C° 0 mm 3 m/s 753 mmHg 86%
04:00 +28°C° 0 mm 3 m/s 754 mmHg 86%
05:00 +28°C° 0 mm 3 m/s 754 mmHg 86%
06:00 +27°C° 0 mm 2 m/s 754 mmHg 87%
07:00 +29°C° 0.1 mm 3 m/s 755 mmHg 81%
08:00 +30°C° 0.1 mm 3 m/s 755 mmHg 75%
09:00 +31°C° 0.1 mm 3 m/s 755 mmHg 69%
10:00 +33°C° 0.3 mm 3 m/s 755 mmHg 67%
11:00 +33°C° 0.3 mm 3 m/s 754 mmHg 64%
12:00 +34°C° 0.3 mm 4 m/s 754 mmHg 61%
13:00 +34°C° 1.3 mm 4 m/s 753 mmHg 63%
14:00 +33°C° 1.3 mm 4 m/s 753 mmHg 64%
15:00 +33°C° 1.3 mm 4 m/s 753 mmHg 66%
16:00 +32°C° 0.8 mm 4 m/s 753 mmHg 71%
17:00 +30°C° 0.8 mm 4 m/s 753 mmHg 76%
18:00 +29°C° 0.8 mm 4 m/s 754 mmHg 81%
19:00 +28°C° 0 mm 4 m/s 754 mmHg 82%
20:00 +28°C° 0 mm 3 m/s 755 mmHg 84%
21:00 +28°C° 0 mm 3 m/s 756 mmHg 85%
22:00 +28°C° 0 mm 3 m/s 755 mmHg 86%
23:00 +28°C° 0 mm 3 m/s 755 mmHg 86%

28 Novembro, Sábado

Tempo Temperatura Precipitação Vento Pressão Humidade
00:00 +28°C° 0 mm 3 m/s 755 mmHg 87%
01:00 +27°C° 0 mm 3 m/s 755 mmHg 87%
02:00 +27°C° 0 mm 2 m/s 755 mmHg 88%
03:00 +27°C° 0 mm 2 m/s 754 mmHg 88%
04:00 +27°C° 0 mm 2 m/s 755 mmHg 89%
05:00 +27°C° 0 mm 2 m/s 755 mmHg 89%
06:00 +27°C° 0 mm 2 m/s 755 mmHg 90%
07:00 +28°C° 0 mm 2 m/s 756 mmHg 83%
08:00 +29°C° 0 mm 2 m/s 756 mmHg 76%
09:00 +31°C° 0 mm 2 m/s 757 mmHg 69%
10:00 +32°C° 0.1 mm 2 m/s 756 mmHg 66%
11:00 +33°C° 0.1 mm 3 m/s 755 mmHg 63%
12:00 +34°C° 0.1 mm 3 m/s 755 mmHg 60%
13:00 +34°C° 0.6 mm 3 m/s 754 mmHg 61%
14:00 +34°C° 0.6 mm 3 m/s 754 mmHg 63%
15:00 +33°C° 0.6 mm 3 m/s 753 mmHg 64%
16:00 +31°C° 0.2 mm 3 m/s 754 mmHg 69%
17:00 +30°C° 0.2 mm 3 m/s 754 mmHg 74%
18:00 +29°C° 0.2 mm 3 m/s 754 mmHg 79%
19:00 +29°C° 0.1 mm 3 m/s 755 mmHg 80%
20:00 +28°C° 0.1 mm 3 m/s 755 mmHg 82%
21:00 +28°C° 0.1 mm 3 m/s 756 mmHg 84%
22:00 +28°C° 0 mm 2 m/s 756 mmHg 85%
23:00 +28°C° 0 mm 2 m/s 756 mmHg 86%

29 Novembro, Domingo

Tempo Temperatura Precipitação Vento Pressão Humidade
00:00 +27°C° 0 mm 2 m/s 755 mmHg 87%
01:00 +27°C° 0 mm 2 m/s 755 mmHg 88%
02:00 +27°C° 0 mm 2 m/s 755 mmHg 89%
03:00 +27°C° 0 mm 2 m/s 754 mmHg 89%
04:00 +27°C° 0 mm 2 m/s 754 mmHg 90%
05:00 +27°C° 0 mm 2 m/s 755 mmHg 90%
06:00 +26°C° 0 mm 2 m/s 755 mmHg 91%
07:00 +28°C° 0 mm 2 m/s 755 mmHg 83%
08:00 +30°C° 0 mm 2 m/s 755 mmHg 76%
09:00 +31°C° 0 mm 2 m/s 756 mmHg 69%
10:00 +32°C° 0.1 mm 2 m/s 755 mmHg 64%
11:00 +35°C° 0.1 mm 2 m/s 755 mmHg 59%
12:00 +36°C° 0.1 mm 2 m/s 754 mmHg 54%
13:00 +35°C° 0.5 mm 2 m/s 754 mmHg 56%
14:00 +35°C° 0.5 mm 3 m/s 753 mmHg 58%
15:00 +34°C° 0.5 mm 3 m/s 753 mmHg 60%
16:00 +33°C° 0.1 mm 3 m/s 753 mmHg 66%
17:00 +31°C° 0.1 mm 3 m/s 753 mmHg 72%
18:00 +29°C° 0.1 mm 3 m/s 753 mmHg 77%
19:00 +29°C° 0.2 mm 3 m/s 754 mmHg 79%
20:00 +29°C° 0.2 mm 3 m/s 754 mmHg 81%
21:00 +28°C° 0.2 mm 3 m/s 755 mmHg 83%
22:00 +28°C° 0 mm 3 m/s 755 mmHg 84%
23:00 +28°C° 0 mm 3 m/s 754 mmHg 85%
Mostrar mais

Necessitamos do seu Consentimento

A Meteoprog e os seus Fornecedores de Serviços podem armazenar e aceder a dados pessoais como cookies, identificadores do dispositivo ou outras tecnologias semelhantes existentes no seu dispositivo e processar estes dados para personalizar conteúdos e anúncios, assim como funcionalidades nas redes sociais e análise de tráfego.

  • Armazenar e/ou aceder a informações no seu dispositivo

    Os cookies, identificadores do dispositivo ou outras informações podem ser armazenados ou acedidos no seu dispositivo, para os fins acima indicados.

  • Anúncios e conteúdos personalizados, medição de anúncios e conteúdos, dados sobre o público-alvo e desenvolvimento de produtos

    Os anúncios e os conteúdos podem ser personalizados com base num perfil. Podem ser adicionados dados adicionais para uma maior personalização dos anúncios e dos conteúdos. A eficácia dos anúncios e dos conteúdos pode ser medida. Podem ser obtidas informações sobre o público que visualizou os anúncios e os conteúdos. Estes dados podem ser usados para desenvolver ou melhorar sistemas, softwares ou a experiência do utilizador.

Ao clicar em "Eu concordo”, permitirá o uso de cookies, identificadores do dispositivo e web beacons mencionados ou outras tecnologias semelhantes. As configurações do navegador do seu dispositivo podem ser alteradas.

Para certos fins, podem ser invocados interesses legítimos ao invés de consentimento. Pode ler mais informação sobre este assunto na nossa Política de Privacidade e Cookies.